Tracking 19832 objects as of 25-Aug-2019
HD Live streaming from Space Station
objects crossing your sky now

FENGYUN 1C DEB

Track FENGYUN 1C DEB now!
10-day predictions


NORAD ID: 36173
Int'l Code: 1999-025DSW
Perigee: 715.1 km
Apogee: 940.7 km
Inclination: 98.3 °
Period: 101.3 minutes
Semi major axis: 7198 km
RCS: 0.0079 m2 (small)
Launch date: May 10, 1999
Source: People's Republic of China (PRC)
Launch site: Taiyaun Space Center, China (TSC)

Note: This is SATELLITE DEBRIS
aabbcc
Your satellite tracking list
Your tracking list is empty




NASA's NSSDC Master Catalog

Two Line Element Set (TLE):
1 36173U 99025DSW 19236.19058383  .00000035  00000-0  29916-4 0  9992
2 36173  98.2791 323.1146 0156684 107.4233 254.4144 14.21349254608416
Source of the keplerian elements: AFSPC